Content
SEND FEEDBACK

Mexico Flag

CANCUN, QUINTANA ROO


Home > North America > Mexico > Quintana Roo
Elevation: 9 meters     Latitude: 21 09N     Longitude: 086 49W

WEATHER
 
SELECT A DAY
Number of Records: 178,610;   Date Range: 1/1/95 - 3/22/16
 
SHARE

PRINT THIS DATA

[ ← Previous Day ]
WEATHER ALMANAC - 14 OCTOBER, 2013
[ Next Day → ]
[ °F ]   °C
Weather ElementAverageHighLow
Temperature25.5 °C30 °C (11:52 am)21 °C (2:40 am)
Dewpoint21.5 °C24 °C (8:46 am)20 °C (2:40 am)
Humidity80.1 %100 % (3:42 am)55 % (3:44 pm)
Barometer1013.9 hPa1015.2 hPa (10:42 am)1012.5 hPa (3:44 pm)
Wind Speed7.9 km/h20.4 km/h (11:52 am)
Weather ElementAverage
Visibility11.3 km
Wind DirectionSE (140 °)

Weather ElementTotal
Precipitation---
Cooling Degree Days7.2 (Base 18.3)
Growing Degree Days15.5 (Base 10)
Averaged from 23 records on 14 October, 2013
WEATHER CONDITIONS BREAKOUT
WIND DIRECTION BREAKOUT
WEATHER BY HOUR - 14 OCTOBER, 2013
[ °F ]   °C
Local TimeTemperatureDewpointHumidityBarometerVisibilityWind DirectionWind SpeedGust SpeedPrecipitationEventsConditions
1:44 AM22 °C21 °C94 %1014.2 hPa11.3 kmNW (320°)3.7 km/hPartly Cloudy
2:40 AM21 °C20 °C94 %1013.5 hPa11.3 kmNW (320°)7.4 km/hPartly Cloudy
3:42 AM21 °C21 °C100 %1013.2 hPa11.3 kmWNW (300°)7.4 km/hScattered Clouds
4:45 AM22 °C21 °C94 %1013.5 hPa11.3 kmNW (320°)7.4 km/hScattered Clouds
5:40 AM22 °C21 °C94 %1013.5 hPa11.3 kmWNW (300°)3.7 km/hScattered Clouds
6:48 AM21 °C21 °C100 %1013.9 hPa11.3 kmNW (320°)7.4 km/hScattered Clouds
7:47 AM23 °C22 °C94 %1014.6 hPa11.3 kmWNW (300°)7.4 km/hScattered Clouds
8:46 AM26 °C24 °C89 %1014.9 hPa11.3 kmNNW (340°)5.6 km/hScattered Clouds
9:41 AM29 °C23 °C70 %1014.9 hPa11.3 kmENE (70°)5.6 km/hScattered Clouds
10:42 AM29 °C22 °C66 %1015.2 hPa11.3 kmENE (60°)14.8 km/hScattered Clouds
11:52 AM30 °C22 °C62 %1014.9 hPa11.3 kmENE (60°)20.4 km/hScattered Clouds
12:42 PM30 °C22 °C62 %1014.9 hPa11.3 kmNNE (30°)7.4 km/hScattered Clouds
1:51 PM30 °C23 °C66 %1013.5 hPa11.3 kmEast (90°)7.4 km/hScattered Clouds
2:50 PM29 °C21 °C62 %1012.9 hPa11.3 kmENE (70°)13 km/hMostly Cloudy
3:44 PM30 °C20 °C55 %1012.5 hPa11.3 kmNE (50°)7.4 km/hMostly Cloudy
4:40 PM29 °C22 °C66 %1012.5 hPa11.3 kmNE (50°)7.4 km/hMostly Cloudy
5:43 PM28 °C22 °C70 %1012.5 hPa11.3 kmNE (50°)7.4 km/hMostly Cloudy
6:43 PM26 °C21 °C74 %1013.2 hPa11.3 kmENE (60°)3.7 km/hScattered Clouds
7:42 PM25 °C22 °C83 %1013.2 hPa11.3 kmNE (50°)5.6 km/hScattered Clouds
8:41 PM24 °C21 °C83 %1013.9 hPa11.3 kmNNE (20°)3.7 km/hClear
9:48 PM24 °C21 °C83 %1013.2 hPa11.3 kmNorth (10°)9.3 km/hClear
10:47 PM23 °C21 °C88 %1014.6 hPa11.3 kmNorth (10°)9.3 km/hClear
11:46 PM22 °C21 °C94 %1014.2 hPa11.3 kmNNE (20°)9.3 km/hClear
Hourly data recorded from MMUN, located 0 kilometers away from Cancun, Quintana Roo




STORIES FROM OUR PARTNERS